Time,TemperatureF,DewpointF,PressureIn,WindDirection,WindDirectionDegrees,WindSpeedMPH,WindSpeedGustMPH,Humidity,HourlyPrecipIn,Conditions,Clouds,dailyrainin,SoftwareType,DateUTC
2013-04-18 05:31:00,63.4,56.8,29.96,SW,229,5.0,5.0,79,0.00,,---,0.00,VWS V14.01,2013-04-18 09:31:00,
2013-04-18 05:32:00,63.4,56.8,29.96,WSW,241,6.0,6.0,79,0.00,,---,0.00,VWS V14.01,2013-04-18 09:32:00,
2013-04-18 05:37:00,63.3,56.7,29.97,WSW,241,8.0,10.0,79,0.00,,---,0.00,VWS V14.01,2013-04-18 09:37:00,
2013-04-18 05:40:00,63.4,56.8,29.97,SSW,207,0.0,10.0,79,0.00,,---,0.00,VWS V14.01,2013-04-18 09:40:00,
2013-04-18 05:42:00,63.3,56.7,29.97,South,169,1.0,7.0,79,0.00,,---,0.00,VWS V14.01,2013-04-18 09:42:00,
2013-04-18 05:47:00,63.3,57.0,29.97,WSW,238,3.0,7.0,80,0.00,,---,0.00,VWS V14.01,2013-04-18 09:47:00,
2013-04-18 05:50:00,63.3,56.7,29.97,SW,226,5.0,7.0,79,0.00,,---,0.00,VWS V14.01,2013-04-18 09:50:00,
2013-04-18 05:52:00,63.3,56.7,29.97,SSE,161,5.0,6.0,79,0.00,,---,0.00,VWS V14.01,2013-04-18 09:52:00,
2013-04-18 05:57:00,63.4,56.8,29.97,SE,140,1.0,7.0,79,0.00,,---,0.00,VWS V14.01,2013-04-18 09:57:00,
2013-04-18 06:00:00,63.3,56.7,29.97,SW,214,1.0,7.0,79,0.00,,---,0.00,VWS V14.01,2013-04-18 10:00:00,
2013-04-18 06:02:00,63.3,56.7,29.97,SW,234,0.0,1.0,79,0.00,,---,0.00,VWS V14.01,2013-04-18 10:02:00,
2013-04-18 06:07:00,63.3,57.0,29.96,SSW,195,2.0,6.0,80,0.00,,---,0.00,VWS V14.01,2013-04-18 10:07:00,
2013-04-18 06:10:00,63.4,56.8,29.96,West,281,6.0,7.0,79,0.00,,---,0.00,VWS V14.01,2013-04-18 10:10:00,
2013-04-18 06:12:00,63.5,56.9,29.96,SSW,203,2.0,6.0,79,0.00,,---,0.00,VWS V14.01,2013-04-18 10:12:00,
2013-04-18 06:17:00,63.6,57.0,29.97,North,11,1.0,8.0,79,0.00,,---,0.00,VWS V14.01,2013-04-18 10:17:00,
2013-04-18 06:20:00,63.6,57.0,29.97,NNE,12,0.0,8.0,79,0.00,,---,0.00,VWS V14.01,2013-04-18 10:20:00,
2013-04-18 06:22:00,63.6,57.0,29.97,WSW,246,4.0,5.0,79,0.00,,---,0.00,VWS V14.01,2013-04-18 10:22:00,
2013-04-18 06:27:00,63.7,57.1,29.97,SSW,199,5.0,6.0,79,0.00,,---,0.00,VWS V14.01,2013-04-18 10:27:00,
2013-04-18 06:30:00,63.8,57.2,29.97,SE,146,4.0,8.0,79,0.00,,---,0.00,VWS V14.01,2013-04-18 10:30:00,
2013-04-18 06:32:00,64.0,57.4,29.97,SSW,192,0.0,8.0,79,0.00,,---,0.00,VWS V14.01,2013-04-18 10:32:00,
2013-04-18 06:37:00,64.2,57.2,29.96,East,94,0.0,8.0,78,0.00,,---,0.00,VWS V14.01,2013-04-18 10:37:00,
2013-04-18 06:40:00,64.3,57.3,29.97,ESE,117,13.0,14.0,78,0.00,,---,0.00,VWS V14.01,2013-04-18 10:40:00,
2013-04-18 06:42:00,64.5,57.5,29.97,SSW,192,10.0,14.0,78,0.00,,---,0.00,VWS V14.01,2013-04-18 10:42:00,
2013-04-18 06:47:00,64.6,57.2,29.97,SSE,157,14.0,20.0,77,0.00,,---,0.00,VWS V14.01,2013-04-18 10:47:00,
2013-04-18 06:50:00,64.7,57.3,29.97,SE,138,18.0,20.0,77,0.00,,---,0.00,VWS V14.01,2013-04-18 10:50:00,
2013-04-18 06:52:00,64.8,57.4,29.97,SSE,164,13.0,18.0,77,0.00,,---,0.00,VWS V14.01,2013-04-18 10:52:00,
2013-04-18 06:57:00,64.8,57.4,29.97,SSW,195,6.0,18.0,77,0.00,,---,0.00,VWS V14.01,2013-04-18 10:57:00,
2013-04-18 07:00:00,64.8,57.4,29.97,South,182,9.0,18.0,77,0.00,,---,0.00,VWS V14.01,2013-04-18 11:00:00,
2013-04-18 07:02:00,64.9,57.5,29.97,SE,138,9.0,18.0,77,0.00,,---,0.00,VWS V14.01,2013-04-18 11:02:00,
2013-04-18 07:07:00,64.9,57.5,29.97,SSE,149,8.0,18.0,77,0.00,,---,0.00,VWS V14.01,2013-04-18 11:07:00,
2013-04-18 07:10:00,65.0,57.6,29.97,South,175,13.0,18.0,77,0.00,,---,0.00,VWS V14.01,2013-04-18 11:10:00,
2013-04-18 07:12:00,65.1,57.7,29.98,SW,225,2.0,15.0,77,0.00,,---,0.00,VWS V14.01,2013-04-18 11:12:00,
2013-04-18 07:17:00,65.2,57.5,29.98,SSE,152,5.0,15.0,76,0.00,,---,0.00,VWS V14.01,2013-04-18 11:17:00,
2013-04-18 07:20:00,65.3,57.5,29.97,SSE,164,11.0,15.0,76,0.00,,---,0.00,VWS V14.01,2013-04-18 11:20:00,
2013-04-18 07:22:00,66.0,57.9,29.97,SSW,192,8.0,19.0,75,0.00,,---,0.00,VWS V14.01,2013-04-18 11:22:00,
2013-04-18 07:27:00,66.9,58.0,29.98,WSW,245,3.0,19.0,73,0.00,,---,0.00,VWS V14.01,2013-04-18 11:27:00,
2013-04-18 07:30:00,67.1,57.8,29.98,SSE,150,9.0,19.0,72,0.00,,---,0.00,VWS V14.01,2013-04-18 11:30:00,
2013-04-18 07:32:00,67.3,57.6,29.98,SW,234,4.0,12.0,71,0.00,,---,0.00,VWS V14.01,2013-04-18 11:32:00,
2013-04-18 07:37:00,67.5,57.8,29.99,SSE,150,0.0,12.0,71,0.00,,---,0.00,VWS V14.01,2013-04-18 11:37:00,
2013-04-18 07:40:00,67.5,57.8,29.99,SW,219,2.0,12.0,71,0.00,,---,0.00,VWS V14.01,2013-04-18 11:40:00,
2013-04-18 07:42:00,67.6,57.9,29.99,SW,222,4.0,10.0,71,0.00,,---,0.00,VWS V14.01,2013-04-18 11:42:00,
2013-04-18 07:47:00,67.9,58.2,29.99,SSE,153,7.0,10.0,71,0.00,,---,0.00,VWS V14.01,2013-04-18 11:47:00,
2013-04-18 07:50:00,68.0,58.3,29.99,SSE,154,6.0,13.0,71,0.00,,---,0.00,VWS V14.01,2013-04-18 11:50:00,
2013-04-18 07:52:00,68.6,58.0,30.00,SSW,195,2.0,8.0,69,0.00,,---,0.00,VWS V14.01,2013-04-18 11:52:00,
2013-04-18 07:57:00,69.1,58.5,29.99,SSE,150,7.0,9.0,69,0.00,,---,0.00,VWS V14.01,2013-04-18 11:57:00,
2013-04-18 08:00:00,69.2,58.2,29.99,SE,135,5.0,9.0,68,0.00,,---,0.00,VWS V14.01,2013-04-18 12:00:00,
2013-04-18 08:02:00,69.3,57.9,29.99,South,188,3.0,8.0,67,0.00,,---,0.00,VWS V14.01,2013-04-18 12:02:00,
2013-04-18 08:07:00,69.5,58.5,29.99,ESE,119,6.0,9.0,68,0.00,,---,0.00,VWS V14.01,2013-04-18 12:07:00,
2013-04-18 08:10:00,69.5,58.5,29.99,SE,124,6.0,9.0,68,0.00,,---,0.00,VWS V14.01,2013-04-18 12:10:00,
2013-04-18 08:12:00,69.6,58.6,29.99,SE,126,6.0,6.0,68,0.00,,---,0.00,VWS V14.01,2013-04-18 12:12:00,
2013-04-18 08:17:00,69.9,58.5,29.99,SSW,198,7.0,14.0,67,0.00,,---,0.00,VWS V14.01,2013-04-18 12:17:00,
2013-04-18 08:20:00,70.0,58.5,29.99,South,171,15.0,18.0,67,0.00,,---,0.00,VWS V14.01,2013-04-18 12:20:00,
2013-04-18 08:22:00,70.7,57.9,29.99,South,182,11.0,19.0,64,0.00,,---,0.00,VWS V14.01,2013-04-18 12:22:00,
2013-04-18 08:28:00,70.9,58.1,29.99,SSW,206,8.0,19.0,64,0.00,,---,0.00,VWS V14.01,2013-04-18 12:28:00,
2013-04-18 08:30:00,71.0,58.2,29.99,SSW,203,13.0,19.0,64,0.00,,---,0.00,VWS V14.01,2013-04-18 12:30:00,
2013-04-18 08:33:00,71.1,58.3,29.99,SSW,199,10.0,18.0,64,0.00,,---,0.00,VWS V14.01,2013-04-18 12:33:00,
2013-04-18 08:38:00,71.3,58.1,29.99,SSW,207,7.0,18.0,63,0.00,,---,0.00,VWS V14.01,2013-04-18 12:38:00,
2013-04-18 08:40:00,71.4,58.6,29.99,SSW,206,9.0,18.0,64,0.00,,---,0.00,VWS V14.01,2013-04-18 12:40:00,
2013-04-18 08:43:00,71.6,58.3,29.99,SSE,155,11.0,19.0,63,0.00,,---,0.00,VWS V14.01,2013-04-18 12:43:00,
2013-04-18 08:48:00,71.6,58.3,29.99,South,178,10.0,19.0,63,0.00,,---,0.00,VWS V14.01,2013-04-18 12:48:00,
2013-04-18 08:50:00,71.6,58.3,29.99,South,173,9.0,19.0,63,0.00,,---,0.00,VWS V14.01,2013-04-18 12:50:00,
2013-04-18 08:53:00,71.7,58.5,29.99,SSE,156,14.0,16.0,63,0.00,,---,0.00,VWS V14.01,2013-04-18 12:53:00,
2013-04-18 08:58:00,71.9,58.6,29.99,South,187,11.0,17.0,63,0.00,,---,0.00,VWS V14.01,2013-04-18 12:58:00,
2013-04-18 09:00:00,71.9,58.6,29.99,South,175,9.0,17.0,63,0.00,,---,0.00,VWS V14.01,2013-04-18 13:00:00,
2013-04-18 09:03:00,72.0,58.7,29.99,South,173,16.0,16.0,63,0.00,,---,0.00,VWS V14.01,2013-04-18 13:03:00,
2013-04-18 09:08:00,72.1,58.8,29.98,SSE,148,9.0,20.0,63,0.00,,---,0.00,VWS V14.01,2013-04-18 13:08:00,
2013-04-18 09:10:00,72.2,58.9,29.99,South,188,8.0,20.0,63,0.00,,---,0.00,VWS V14.01,2013-04-18 13:10:00,
2013-04-18 09:13:00,72.5,58.8,29.98,SSE,148,9.0,13.0,62,0.00,,---,0.00,VWS V14.01,2013-04-18 13:13:00,
2013-04-18 09:18:00,72.8,59.5,29.98,SSW,202,6.0,15.0,63,0.00,,---,0.00,VWS V14.01,2013-04-18 13:18:00,
2013-04-18 09:20:00,72.9,59.6,29.98,South,169,13.0,16.0,63,0.00,,---,0.00,VWS V14.01,2013-04-18 13:20:00,
2013-04-18 09:23:00,73.2,59.4,29.98,SSW,198,6.0,17.0,62,0.00,,---,0.00,VWS V14.01,2013-04-18 13:23:00,
2013-04-18 09:28:00,73.5,59.2,29.98,South,191,9.0,17.0,61,0.00,,---,0.00,VWS V14.01,2013-04-18 13:28:00,
2013-04-18 09:30:00,73.6,58.9,29.98,SSW,209,9.0,17.0,60,0.00,,---,0.00,VWS V14.01,2013-04-18 13:30:00,
2013-04-18 09:33:00,74.0,58.8,29.97,SW,230,14.0,20.0,59,0.00,,---,0.00,VWS V14.01,2013-04-18 13:33:00,
2013-04-18 09:38:00,74.5,59.2,29.98,South,180,7.0,20.0,59,0.00,,---,0.00,VWS V14.01,2013-04-18 13:38:00,
2013-04-18 09:40:00,74.6,58.9,29.98,SSE,161,9.0,20.0,58,0.00,,---,0.00,VWS V14.01,2013-04-18 13:40:00,
2013-04-18 09:43:00,74.8,58.6,29.97,SSW,198,18.0,19.0,57,0.00,,---,0.00,VWS V14.01,2013-04-18 13:43:00,
2013-04-18 09:48:00,75.1,58.8,29.97,SE,145,8.0,19.0,57,0.00,,---,0.00,VWS V14.01,2013-04-18 13:48:00,
2013-04-18 09:50:00,75.2,58.4,29.97,WSW,249,14.0,19.0,56,0.00,,---,0.00,VWS V14.01,2013-04-18 13:50:00,
2013-04-18 09:53:00,75.4,58.6,29.97,SW,223,14.0,15.0,56,0.00,,---,0.00,VWS V14.01,2013-04-18 13:53:00,
2013-04-18 09:58:00,75.7,58.9,29.97,SSE,157,10.0,15.0,56,0.00,,---,0.00,VWS V14.01,2013-04-18 13:58:00,
2013-04-18 10:00:00,75.8,59.5,29.97,SSW,200,13.0,15.0,57,0.00,,---,0.00,VWS V14.01,2013-04-18 14:00:00,
2013-04-18 10:03:00,76.1,58.8,29.97,SW,215,13.0,18.0,55,0.00,,---,0.00,VWS V14.01,2013-04-18 14:03:00,
2013-04-18 10:08:00,76.2,58.9,29.97,SSW,195,4.0,18.0,55,0.00,,---,0.00,VWS V14.01,2013-04-18 14:08:00,
2013-04-18 10:10:00,76.3,60.0,29.97,SSW,194,10.0,18.0,57,0.00,,---,0.00,VWS V14.01,2013-04-18 14:10:00,
2013-04-18 10:13:00,76.6,58.7,29.97,South,181,9.0,15.0,54,0.00,,---,0.00,VWS V14.01,2013-04-18 14:13:00,
2013-04-18 10:18:00,76.9,59.5,29.97,South,169,10.0,15.0,55,0.00,,---,0.00,VWS V14.01,2013-04-18 14:18:00,
2013-04-18 10:20:00,76.9,58.5,29.97,SSW,207,11.0,20.0,53,0.00,,---,0.00,VWS V14.01,2013-04-18 14:20:00,
2013-04-18 10:23:00,77.2,59.3,29.97,SSW,200,6.0,14.0,54,0.00,,---,0.00,VWS V14.01,2013-04-18 14:23:00,
2013-04-18 10:28:00,77.4,58.4,29.97,SSW,213,7.0,16.0,52,0.00,,---,0.00,VWS V14.01,2013-04-18 14:28:00,
2013-04-18 10:30:00,77.4,59.0,29.97,SSW,209,9.0,16.0,53,0.00,,---,0.00,VWS V14.01,2013-04-18 14:30:00,
2013-04-18 10:33:00,77.7,59.2,29.97,SSW,205,9.0,13.0,53,0.00,,---,0.00,VWS V14.01,2013-04-18 14:33:00,
2013-04-18 10:38:00,78.1,59.1,29.97,South,182,8.0,14.0,52,0.00,,---,0.00,VWS V14.01,2013-04-18 14:38:00,
2013-04-18 10:40:00,78.2,59.7,29.97,SW,227,4.0,14.0,53,0.00,,---,0.00,VWS V14.01,2013-04-18 14:40:00,
2013-04-18 10:43:00,78.5,60.0,29.96,South,182,3.0,14.0,53,0.00,,---,0.00,VWS V14.01,2013-04-18 14:43:00,
2013-04-18 10:48:00,79.0,58.2,29.96,SW,227,15.0,15.0,49,0.00,,---,0.00,VWS V14.01,2013-04-18 14:48:00,
2013-04-18 10:50:00,78.9,58.1,29.96,SW,225,18.0,22.0,49,0.00,,---,0.00,VWS V14.01,2013-04-18 14:50:00,
2013-04-18 10:53:00,78.8,58.6,29.96,WSW,256,5.0,21.0,50,0.00,,---,0.00,VWS V14.01,2013-04-18 14:53:00,
2013-04-18 10:58:00,78.8,58.0,29.96,SW,215,8.0,21.0,49,0.00,,---,0.00,VWS V14.01,2013-04-18 14:58:00,
2013-04-18 11:00:00,78.8,58.0,29.96,SW,222,5.0,21.0,49,0.00,,---,0.00,VWS V14.01,2013-04-18 15:00:00,
2013-04-18 11:03:00,79.3,59.1,29.96,SW,215,9.0,13.0,50,0.00,,---,0.00,VWS V14.01,2013-04-18 15:03:00,
2013-04-18 11:08:00,79.6,60.4,29.96,SW,227,10.0,16.0,52,0.00,,---,0.00,VWS V14.01,2013-04-18 15:08:00,
2013-04-18 11:10:00,79.7,60.0,29.96,SE,145,11.0,16.0,51,0.00,,---,0.00,VWS V14.01,2013-04-18 15:10:00,
2013-04-18 11:13:00,79.7,58.9,29.96,SW,233,9.0,15.0,49,0.00,,---,0.00,VWS V14.01,2013-04-18 15:13:00,
2013-04-18 11:18:00,79.6,58.8,29.96,SW,226,12.0,17.0,49,0.00,,---,0.00,VWS V14.01,2013-04-18 15:18:00,
2013-04-18 11:20:00,79.5,58.7,29.96,SSW,213,10.0,17.0,49,0.00,,---,0.00,VWS V14.01,2013-04-18 15:20:00,
2013-04-18 11:23:00,79.2,59.0,29.95,SW,225,12.0,14.0,50,0.00,,---,0.00,VWS V14.01,2013-04-18 15:23:00,
2013-04-18 11:28:00,79.1,58.9,29.95,SSW,205,8.0,14.0,50,0.00,,---,0.00,VWS V14.01,2013-04-18 15:28:00,
2013-04-18 11:30:00,79.1,58.9,29.95,SW,222,3.0,14.0,50,0.00,,---,0.00,VWS V14.01,2013-04-18 15:30:00,
2013-04-18 11:33:00,78.8,59.2,29.95,WSW,241,12.0,13.0,51,0.00,,---,0.00,VWS V14.01,2013-04-18 15:33:00,
2013-04-18 11:38:00,78.4,58.8,29.95,SW,215,9.0,14.0,51,0.00,,---,0.00,VWS V14.01,2013-04-18 15:38:00,
2013-04-18 11:40:00,78.4,58.8,29.95,SSW,213,4.0,14.0,51,0.00,,---,0.00,VWS V14.01,2013-04-18 15:40:00,
2013-04-18 11:43:00,78.2,59.2,29.95,SSW,213,6.0,13.0,52,0.00,,---,0.00,VWS V14.01,2013-04-18 15:43:00,
2013-04-18 11:48:00,78.1,59.1,29.94,SW,225,5.0,15.0,52,0.00,,---,0.00,VWS V14.01,2013-04-18 15:48:00,
2013-04-18 11:50:00,78.1,59.6,29.94,SW,217,9.0,15.0,53,0.00,,---,0.00,VWS V14.01,2013-04-18 15:50:00,
2013-04-18 11:53:00,78.6,60.1,29.94,SW,222,6.0,9.0,53,0.00,,---,0.00,VWS V14.01,2013-04-18 15:53:00,
2013-04-18 11:58:00,79.3,60.2,29.94,South,181,15.0,15.0,52,0.00,,---,0.00,VWS V14.01,2013-04-18 15:58:00,
2013-04-18 12:00:00,79.3,59.1,29.94,South,180,8.0,16.0,50,0.00,,---,0.00,VWS V14.01,2013-04-18 16:00:00,
2013-04-18 12:03:00,78.8,58.6,29.93,SSW,206,4.0,16.0,50,0.00,,---,0.00,VWS V14.01,2013-04-18 16:03:00,
2013-04-18 12:08:00,78.6,59.0,29.93,SW,230,3.0,16.0,51,0.00,,---,0.00,VWS V14.01,2013-04-18 16:08:00,
2013-04-18 12:10:00,78.6,59.0,29.93,SSW,212,9.0,16.0,51,0.00,,---,0.00,VWS V14.01,2013-04-18 16:10:00,
2013-04-18 12:13:00,78.5,60.0,29.93,South,181,4.0,9.0,53,0.00,,---,0.00,VWS V14.01,2013-04-18 16:13:00,
2013-04-18 12:18:00,78.8,59.7,29.93,South,169,6.0,11.0,52,0.00,,---,0.00,VWS V14.01,2013-04-18 16:18:00,
2013-04-18 12:20:00,78.9,60.3,29.93,SSW,202,7.0,11.0,53,0.00,,---,0.00,VWS V14.01,2013-04-18 16:20:00,
2013-04-18 12:23:00,79.7,60.0,29.92,SW,225,8.0,10.0,51,0.00,,---,0.00,VWS V14.01,2013-04-18 16:23:00,
2013-04-18 12:28:00,80.1,59.2,29.92,South,178,13.0,15.0,49,0.00,,---,0.00,VWS V14.01,2013-04-18 16:28:00,
2013-04-18 12:30:00,80.1,59.2,29.92,SSE,156,11.0,15.0,49,0.00,,---,0.00,VWS V14.01,2013-04-18 16:30:00,
2013-04-18 12:33:00,79.7,59.4,29.92,SSW,194,7.0,15.0,50,0.00,,---,0.00,VWS V14.01,2013-04-18 16:33:00,
2013-04-18 12:38:00,79.2,59.0,29.92,SW,223,12.0,18.0,50,0.00,,---,0.00,VWS V14.01,2013-04-18 16:38:00,
2013-04-18 12:40:00,79.2,59.5,29.92,SW,225,7.0,18.0,51,0.00,,---,0.00,VWS V14.01,2013-04-18 16:40:00,
2013-04-18 12:43:00,78.8,59.7,29.91,SSW,195,5.0,13.0,52,0.00,,---,0.00,VWS V14.01,2013-04-18 16:43:00,
2013-04-18 12:48:00,78.4,59.9,29.91,SSW,207,7.0,13.0,53,0.00,,---,0.00,VWS V14.01,2013-04-18 16:48:00,
2013-04-18 12:50:00,78.4,59.9,29.91,SSE,167,8.0,13.0,53,0.00,,---,0.00,VWS V14.01,2013-04-18 16:50:00,
2013-04-18 12:53:00,78.2,60.2,29.91,South,184,8.0,12.0,54,0.00,,---,0.00,VWS V14.01,2013-04-18 16:53:00,
2013-04-18 12:58:00,78.1,59.6,29.91,South,170,8.0,14.0,53,0.00,,---,0.00,VWS V14.01,2013-04-18 16:58:00,
2013-04-18 13:00:00,78.1,59.6,29.91,SSE,167,8.0,14.0,53,0.00,,---,0.00,VWS V14.01,2013-04-18 17:00:00,
2013-04-18 13:03:00,78.7,60.2,29.90,SSW,205,4.0,12.0,53,0.00,,---,0.00,VWS V14.01,2013-04-18 17:03:00,
2013-04-18 13:08:00,79.4,60.3,29.90,SSW,210,5.0,12.0,52,0.00,,---,0.00,VWS V14.01,2013-04-18 17:08:00,
2013-04-18 13:10:00,79.4,60.8,29.90,SSE,161,5.0,12.0,53,0.00,,---,0.00,VWS V14.01,2013-04-18 17:10:00,
2013-04-18 13:13:00,80.1,61.4,29.89,SSE,160,7.0,11.0,53,0.00,,---,0.00,VWS V14.01,2013-04-18 17:13:00,
2013-04-18 13:18:00,80.2,61.0,29.89,South,190,8.0,11.0,52,0.00,,---,0.00,VWS V14.01,2013-04-18 17:18:00,
2013-04-18 13:20:00,80.3,61.1,29.89,SW,215,6.0,11.0,52,0.00,,---,0.00,VWS V14.01,2013-04-18 17:20:00,
2013-04-18 13:24:00,80.2,60.5,29.89,South,191,4.0,14.0,51,0.00,,---,0.00,VWS V14.01,2013-04-18 17:24:00,
2013-04-18 13:29:00,80.6,59.7,29.89,WSW,238,8.0,17.0,49,0.00,,---,0.00,VWS V14.01,2013-04-18 17:29:00,
2013-04-18 13:30:00,80.6,59.7,29.89,NW,325,3.0,17.0,49,0.00,,---,0.00,VWS V14.01,2013-04-18 17:30:00,
2013-04-18 13:34:00,81.4,61.0,29.88,South,171,8.0,11.0,50,0.00,,---,0.00,VWS V14.01,2013-04-18 17:34:00,
2013-04-18 13:39:00,82.1,59.9,29.88,South,175,13.0,15.0,47,0.00,,---,0.00,VWS V14.01,2013-04-18 17:39:00,
2013-04-18 13:40:00,82.2,60.0,29.88,SSE,155,12.0,15.0,47,0.00,,---,0.00,VWS V14.01,2013-04-18 17:40:00,
2013-04-18 13:44:00,82.1,60.5,29.87,SSW,195,9.0,15.0,48,0.00,,---,0.00,VWS V14.01,2013-04-18 17:44:00,
2013-04-18 13:49:00,82.5,59.7,29.87,SSE,163,11.0,15.0,46,0.00,,---,0.00,VWS V14.01,2013-04-18 17:49:00,
2013-04-18 13:50:00,82.4,59.6,29.87,South,178,7.0,15.0,46,0.00,,---,0.00,VWS V14.01,2013-04-18 17:50:00,
2013-04-18 13:54:00,82.5,59.7,29.86,SW,218,9.0,15.0,46,0.00,,---,0.00,VWS V14.01,2013-04-18 17:54:00,
2013-04-18 13:59:00,82.6,58.5,29.86,WSW,257,6.0,15.0,44,0.00,,---,0.00,VWS V14.01,2013-04-18 17:59:00,
2013-04-18 14:00:00,82.6,58.5,29.86,SSW,207,11.0,15.0,44,0.00,,---,0.00,VWS V14.01,2013-04-18 18:00:00,
2013-04-18 14:04:00,82.4,59.0,29.86,SSW,203,2.0,13.0,45,0.00,,---,0.00,VWS V14.01,2013-04-18 18:04:00,
2013-04-18 14:09:00,82.8,59.3,29.86,South,188,11.0,16.0,45,0.00,,---,0.00,VWS V14.01,2013-04-18 18:09:00,
2013-04-18 14:10:00,82.8,59.3,29.86,SW,218,12.0,16.0,45,0.00,,---,0.00,VWS V14.01,2013-04-18 18:10:00,
2013-04-18 14:14:00,83.1,60.2,29.85,WSW,250,5.0,13.0,46,0.00,,---,0.00,VWS V14.01,2013-04-18 18:14:00,
2013-04-18 14:19:00,83.3,59.1,29.85,SSW,211,8.0,19.0,44,0.00,,---,0.00,VWS V14.01,2013-04-18 18:19:00,
2013-04-18 14:20:00,83.2,59.0,29.85,SSW,195,5.0,19.0,44,0.00,,---,0.00,VWS V14.01,2013-04-18 18:20:00,
2013-04-18 14:24:00,83.4,59.8,29.84,SSE,168,6.0,13.0,45,0.00,,---,0.00,VWS V14.01,2013-04-18 18:24:00,
2013-04-18 14:29:00,83.7,58.8,29.84,South,190,7.0,20.0,43,0.00,,---,0.00,VWS V14.01,2013-04-18 18:29:00,
2013-04-18 14:30:00,83.7,58.8,29.84,SSE,165,8.0,20.0,43,0.00,,---,0.00,VWS V14.01,2013-04-18 18:30:00,
2013-04-18 14:34:00,84.1,58.5,29.84,SW,225,15.0,22.0,42,0.00,,---,0.00,VWS V14.01,2013-04-18 18:34:00,
2013-04-18 14:39:00,84.3,60.0,29.84,SSW,195,11.0,22.0,44,0.00,,---,0.00,VWS V14.01,2013-04-18 18:39:00,
2013-04-18 14:40:00,84.3,60.0,29.84,SSW,213,9.0,22.0,44,0.00,,---,0.00,VWS V14.01,2013-04-18 18:40:00,
2013-04-18 14:44:00,84.6,57.6,29.83,SW,217,12.0,15.0,40,0.00,,---,0.00,VWS V14.01,2013-04-18 18:44:00,
2013-04-18 14:49:00,84.6,59.0,29.83,SSW,211,5.0,15.0,42,0.00,,---,0.00,VWS V14.01,2013-04-18 18:49:00,
2013-04-18 14:50:00,84.6,59.0,29.83,SSW,211,5.0,15.0,42,0.00,,---,0.00,VWS V14.01,2013-04-18 18:50:00,
2013-04-18 14:54:00,84.4,58.2,29.83,SW,230,12.0,16.0,41,0.00,,---,0.00,VWS V14.01,2013-04-18 18:54:00,
2013-04-18 14:59:00,85.0,59.4,29.83,South,190,7.0,16.0,42,0.00,,---,0.00,VWS V14.01,2013-04-18 18:59:00,
2013-04-18 15:00:00,85.0,59.4,29.83,South,190,7.0,16.0,42,0.00,,---,0.00,VWS V14.01,2013-04-18 19:00:00,
2013-04-18 15:04:00,84.7,57.7,29.83,SW,217,13.0,17.0,40,0.00,,---,0.00,VWS V14.01,2013-04-18 19:04:00,
2013-04-18 15:09:00,84.9,58.6,29.83,SSW,198,7.0,18.0,41,0.00,,---,0.00,VWS V14.01,2013-04-18 19:09:00,
2013-04-18 15:10:00,84.9,58.6,29.83,SSW,198,7.0,18.0,41,0.00,,---,0.00,VWS V14.01,2013-04-18 19:10:00,
2013-04-18 15:14:00,85.0,57.3,29.82,SSW,208,7.0,16.0,39,0.00,,---,0.00,VWS V14.01,2013-04-18 19:14:00,
2013-04-18 15:19:00,85.1,58.1,29.82,SSW,206,14.0,14.0,40,0.00,,---,0.00,VWS V14.01,2013-04-18 19:19:00,
2013-04-18 15:20:00,85.1,58.1,29.82,SSW,195,13.0,20.0,40,0.00,,---,0.00,VWS V14.01,2013-04-18 19:20:00,
2013-04-18 15:24:00,85.0,58.7,29.82,SSE,164,8.0,20.0,41,0.00,,---,0.00,VWS V14.01,2013-04-18 19:24:00,
2013-04-18 15:29:00,84.9,57.2,29.81,SW,225,17.0,17.0,39,0.00,,---,0.00,VWS V14.01,2013-04-18 19:29:00,
2013-04-18 15:30:00,84.9,57.2,29.81,WSW,250,9.0,23.0,39,0.00,,---,0.00,VWS V14.01,2013-04-18 19:30:00,
2013-04-18 15:34:00,85.3,58.3,29.81,South,191,13.0,18.0,40,0.00,,---,0.00,VWS V14.01,2013-04-18 19:34:00,
2013-04-18 15:39:00,85.1,57.4,29.81,SW,222,12.0,12.0,39,0.00,,---,0.00,VWS V14.01,2013-04-18 19:39:00,
2013-04-18 15:40:00,85.1,57.4,29.81,SW,222,6.0,26.0,39,0.00,,---,0.00,VWS V14.01,2013-04-18 19:40:00,
2013-04-18 15:44:00,84.5,56.8,29.81,SSW,211,12.0,18.0,39,0.00,,---,0.00,VWS V14.01,2013-04-18 19:44:00,
2013-04-18 15:49:00,84.8,57.1,29.81,South,186,5.0,11.0,39,0.00,,---,0.00,VWS V14.01,2013-04-18 19:49:00,
2013-04-18 15:50:00,84.7,57.0,29.81,SW,219,11.0,22.0,39,0.00,,---,0.00,VWS V14.01,2013-04-18 19:50:00,
2013-04-18 15:54:00,85.4,57.7,29.80,SSW,199,8.0,22.0,39,0.00,,---,0.00,VWS V14.01,2013-04-18 19:54:00,
2013-04-18 15:59:00,84.8,57.1,29.81,SW,215,7.0,9.0,39,0.00,,---,0.00,VWS V14.01,2013-04-18 19:59:00,
2013-04-18 16:00:00,84.8,57.1,29.80,SSW,205,8.0,22.0,39,0.00,,---,0.00,VWS V14.01,2013-04-18 20:00:00,
2013-04-18 16:04:00,84.6,56.9,29.80,SSW,211,8.0,18.0,39,0.00,,---,0.00,VWS V14.01,2013-04-18 20:04:00,
2013-04-18 16:09:00,84.8,57.1,29.80,SW,232,11.0,13.0,39,0.00,,---,0.00,VWS V14.01,2013-04-18 20:09:00,
2013-04-18 16:10:00,84.8,57.1,29.80,SSW,196,11.0,18.0,39,0.00,,---,0.00,VWS V14.01,2013-04-18 20:10:00,
2013-04-18 16:14:00,85.4,57.7,29.80,South,176,10.0,18.0,39,0.00,,---,0.00,VWS V14.01,2013-04-18 20:14:00,
2013-04-18 16:19:00,85.0,56.6,29.80,SW,227,17.0,17.0,38,0.00,,---,0.00,VWS V14.01,2013-04-18 20:19:00,
2013-04-18 16:20:00,85.0,56.6,29.80,SSW,200,17.0,28.0,38,0.00,,---,0.00,VWS V14.01,2013-04-18 20:20:00,
2013-04-18 16:24:00,84.5,56.1,29.80,SSW,202,7.0,19.0,38,0.00,,---,0.00,VWS V14.01,2013-04-18 20:24:00,
2013-04-18 16:29:00,84.5,58.2,29.80,SW,230,17.0,19.0,41,0.00,,---,0.00,VWS V14.01,2013-04-18 20:29:00,
2013-04-18 16:30:00,84.5,58.2,29.80,SSW,204,11.0,19.0,41,0.00,,---,0.00,VWS V14.01,2013-04-18 20:30:00,
2013-04-18 16:34:00,84.1,57.2,29.80,SSW,202,5.0,19.0,40,0.00,,---,0.00,VWS V14.01,2013-04-18 20:34:00,
2013-04-18 16:39:00,83.7,56.8,29.80,SSE,161,10.0,14.0,40,0.00,,---,0.00,VWS V14.01,2013-04-18 20:39:00,
2013-04-18 16:40:00,83.7,56.8,29.80,South,190,10.0,20.0,40,0.00,,---,0.00,VWS V14.01,2013-04-18 20:40:00,
2013-04-18 16:44:00,83.4,56.6,29.80,South,171,12.0,19.0,40,0.00,,---,0.00,VWS V14.01,2013-04-18 20:44:00,
2013-04-18 16:49:00,83.5,56.7,29.80,SSE,161,12.0,18.0,40,0.00,,---,0.00,VWS V14.01,2013-04-18 20:49:00,
2013-04-18 16:50:00,83.5,57.3,29.80,SW,227,10.0,19.0,41,0.00,,---,0.00,VWS V14.01,2013-04-18 20:50:00,
2013-04-18 16:54:00,84.0,57.8,29.80,South,188,17.0,23.0,41,0.00,,---,0.00,VWS V14.01,2013-04-18 20:54:00,
2013-04-18 16:59:00,84.0,57.1,29.79,SW,222,11.0,18.0,40,0.00,,---,0.00,VWS V14.01,2013-04-18 20:59:00,
2013-04-18 17:00:00,83.9,57.0,29.80,SSE,164,18.0,23.0,40,0.00,,---,0.00,VWS V14.01,2013-04-18 21:00:00,
2013-04-18 17:04:00,83.9,57.0,29.79,SSW,192,9.0,18.0,40,0.00,,---,0.00,VWS V14.01,2013-04-18 21:04:00,
2013-04-18 17:09:00,84.1,57.2,29.78,SW,233,14.0,20.0,40,0.00,,---,0.00,VWS V14.01,2013-04-18 21:09:00,
2013-04-18 17:10:00,84.1,57.2,29.79,SW,215,13.0,23.0,40,0.00,,---,0.00,VWS V14.01,2013-04-18 21:10:00,
2013-04-18 17:14:00,83.8,57.6,29.79,SSE,163,14.0,21.0,41,0.00,,---,0.00,VWS V14.01,2013-04-18 21:14:00,
2013-04-18 17:19:00,83.4,57.3,29.78,South,173,18.0,19.0,41,0.00,,---,0.00,VWS V14.01,2013-04-18 21:19:00,
2013-04-18 17:20:00,83.5,57.3,29.78,South,184,13.0,22.0,41,0.00,,---,0.00,VWS V14.01,2013-04-18 21:20:00,
2013-04-18 17:24:00,83.6,57.4,29.78,South,182,10.0,20.0,41,0.00,,---,0.00,VWS V14.01,2013-04-18 21:24:00,
2013-04-18 17:29:00,83.8,56.9,29.79,SW,214,20.0,20.0,40,0.00,,---,0.00,VWS V14.01,2013-04-18 21:29:00,
2013-04-18 17:30:00,83.8,56.9,29.79,WSW,248,12.0,24.0,40,0.00,,---,0.00,VWS V14.01,2013-04-18 21:30:00,
2013-04-18 17:34:00,84.0,57.8,29.79,South,178,12.0,20.0,41,0.00,,---,0.00,VWS V14.01,2013-04-18 21:34:00,
2013-04-18 17:39:00,83.9,57.0,29.79,SSW,213,11.0,12.0,40,0.00,,---,0.00,VWS V14.01,2013-04-18 21:39:00,
2013-04-18 17:40:00,83.9,57.0,29.79,SW,214,12.0,23.0,40,0.00,,---,0.00,VWS V14.01,2013-04-18 21:40:00,
2013-04-18 17:44:00,83.4,56.6,29.79,SSW,205,8.0,21.0,40,0.00,,---,0.00,VWS V14.01,2013-04-18 21:44:00,
2013-04-18 17:49:00,83.0,56.9,29.79,SW,232,10.0,21.0,41,0.00,,---,0.00,VWS V14.01,2013-04-18 21:49:00,
2013-04-18 17:50:00,83.0,56.9,29.79,South,172,17.0,23.0,41,0.00,,---,0.00,VWS V14.01,2013-04-18 21:50:00,
2013-04-18 17:54:00,82.8,57.4,29.79,SW,229,12.0,22.0,42,0.00,,---,0.00,VWS V14.01,2013-04-18 21:54:00,
2013-04-18 18:00:00,83.1,57.0,29.78,SW,215,14.0,20.0,41,0.00,,---,0.00,VWS V14.01,2013-04-18 22:00:00,
2013-04-18 18:05:00,83.2,57.8,29.78,SSE,165,8.0,21.0,42,0.00,,---,0.00,VWS V14.01,2013-04-18 22:05:00,
2013-04-18 18:10:00,83.1,56.3,29.79,SSE,168,19.0,24.0,40,0.00,,---,0.00,VWS V14.01,2013-04-18 22:10:00,
2013-04-18 18:15:00,82.5,56.5,29.78,South,174,10.0,25.0,41,0.00,,---,0.00,VWS V14.01,2013-04-18 22:15:00,
2013-04-18 18:20:00,82.4,56.4,29.78,SW,226,12.0,12.0,41,0.00,,---,0.00,VWS V14.01,2013-04-18 22:20:00,
2013-04-18 18:25:00,82.1,56.1,29.78,SW,226,14.0,18.0,41,0.00,,---,0.00,VWS V14.01,2013-04-18 22:25:00,
2013-04-18 18:30:00,81.8,55.8,29.78,South,185,13.0,15.0,41,0.00,,---,0.00,VWS V14.01,2013-04-18 22:30:00,
2013-04-18 18:35:00,81.6,56.3,29.78,SSE,163,11.0,16.0,42,0.00,,---,0.00,VWS V14.01,2013-04-18 22:35:00,
2013-04-18 18:40:00,81.5,56.2,29.78,SSW,203,10.0,17.0,42,0.00,,---,0.00,VWS V14.01,2013-04-18 22:40:00,
2013-04-18 18:45:00,81.1,55.9,29.78,SSW,202,13.0,23.0,42,0.00,,---,0.00,VWS V14.01,2013-04-18 22:45:00,
2013-04-18 18:50:00,80.8,55.6,29.78,SW,232,12.0,18.0,42,0.00,,---,0.00,VWS V14.01,2013-04-18 22:50:00,
2013-04-18 18:55:00,80.3,55.8,29.78,SW,222,17.0,19.0,43,0.00,,---,0.00,VWS V14.01,2013-04-18 22:55:00,
2013-04-18 19:00:00,80.0,56.2,29.78,South,185,15.0,17.0,44,0.00,,---,0.00,VWS V14.01,2013-04-18 23:00:00,
2013-04-18 19:05:00,79.7,55.9,29.78,SSW,201,11.0,23.0,44,0.00,,---,0.00,VWS V14.01,2013-04-18 23:05:00,
2013-04-18 19:10:00,79.6,55.8,29.78,SSW,198,11.0,18.0,44,0.00,,---,0.00,VWS V14.01,2013-04-18 23:10:00,
2013-04-18 19:15:00,79.4,55.6,29.77,SW,222,12.0,18.0,44,0.00,,---,0.00,VWS V14.01,2013-04-18 23:15:00,
2013-04-18 19:20:00,79.3,55.5,29.77,SW,215,11.0,20.0,44,0.00,,---,0.00,VWS V14.01,2013-04-18 23:20:00,
2013-04-18 19:25:00,79.2,55.4,29.77,South,182,16.0,24.0,44,0.00,,---,0.00,VWS V14.01,2013-04-18 23:25:00,
2013-04-18 19:30:00,78.9,55.2,29.77,SSW,203,9.0,21.0,44,0.00,,---,0.00,VWS V14.01,2013-04-18 23:30:00,
2013-04-18 19:35:00,78.8,55.1,29.77,SSW,210,14.0,22.0,44,0.00,,---,0.00,VWS V14.01,2013-04-18 23:35:00,
2013-04-18 19:40:00,78.6,54.9,29.78,SSE,161,15.0,23.0,44,0.00,,---,0.00,VWS V14.01,2013-04-18 23:40:00,
2013-04-18 19:45:00,78.5,55.4,29.78,SW,230,15.0,23.0,45,0.00,,---,0.00,VWS V14.01,2013-04-18 23:45:00,
2013-04-18 19:50:00,78.3,54.6,29.78,SSW,205,12.0,24.0,44,0.00,,---,0.00,VWS V14.01,2013-04-18 23:50:00,
2013-04-18 19:55:00,78.2,54.5,29.77,South,190,7.0,24.0,44,0.00,,---,0.00,VWS V14.01,2013-04-18 23:55:00,
2013-04-18 20:00:00,77.9,54.9,29.77,SSE,167,10.0,10.0,45,0.00,,---,0.00,VWS V14.01,2013-04-19 00:00:00,
2013-04-18 20:05:00,77.7,54.7,29.78,SSW,208,14.0,22.0,45,0.00,,---,0.00,VWS V14.01,2013-04-19 00:05:00,
2013-04-18 20:10:00,77.5,54.5,29.78,WSW,237,13.0,19.0,45,0.00,,---,0.00,VWS V14.01,2013-04-19 00:10:00,
2013-04-18 20:15:00,77.4,54.4,29.78,South,184,15.0,22.0,45,0.00,,---,0.00,VWS V14.01,2013-04-19 00:15:00,
2013-04-18 20:20:00,77.3,54.3,29.79,SSW,192,14.0,18.0,45,0.00,,---,0.00,VWS V14.01,2013-04-19 00:20:00,
2013-04-18 20:25:00,77.0,54.1,29.79,WSW,238,15.0,20.0,45,0.00,,---,0.00,VWS V14.01,2013-04-19 00:25:00,
2013-04-18 20:30:00,76.7,54.4,29.79,SSE,167,6.0,10.0,46,0.00,,---,0.00,VWS V14.01,2013-04-19 00:30:00,
2013-04-18 20:35:00,76.4,54.1,29.80,SW,217,13.0,16.0,46,0.00,,---,0.00,VWS V14.01,2013-04-19 00:35:00,
2013-04-18 20:40:00,76.3,54.0,29.80,SW,217,8.0,13.0,46,0.00,,---,0.00,VWS V14.01,2013-04-19 00:40:00,
2013-04-18 20:45:00,76.0,54.3,29.80,SSE,167,5.0,13.0,47,0.00,,---,0.00,VWS V14.01,2013-04-19 00:45:00,
2013-04-18 20:50:00,75.8,54.7,29.79,South,173,8.0,10.0,48,0.00,,---,0.00,VWS V14.01,2013-04-19 00:50:00,
2013-04-18 20:55:00,75.6,54.5,29.79,SSE,157,10.0,15.0,48,0.00,,---,0.00,VWS V14.01,2013-04-19 00:55:00,
2013-04-18 21:00:00,75.4,54.4,29.80,South,175,9.0,13.0,48,0.00,,---,0.00,VWS V14.01,2013-04-19 01:00:00,
2013-04-18 21:05:00,75.3,54.3,29.80,SSE,161,7.0,14.0,48,0.00,,---,0.00,VWS V14.01,2013-04-19 01:05:00,
2013-04-18 21:10:00,75.1,54.7,29.80,South,169,7.0,9.0,49,0.00,,---,0.00,VWS V14.01,2013-04-19 01:10:00,
2013-04-18 21:15:00,74.8,54.4,29.80,South,173,10.0,13.0,49,0.00,,---,0.00,VWS V14.01,2013-04-19 01:15:00,
2013-04-18 21:20:00,74.6,54.8,29.80,SSW,192,11.0,13.0,50,0.00,,---,0.00,VWS V14.01,2013-04-19 01:20:00,
2013-04-18 21:25:00,74.6,54.2,29.80,SSW,192,11.0,17.0,49,0.00,,---,0.00,VWS V14.01,2013-04-19 01:25:00,
2013-04-18 21:30:00,74.6,54.2,29.80,SSE,157,10.0,17.0,49,0.00,,---,0.00,VWS V14.01,2013-04-19 01:30:00,
2013-04-18 21:35:00,74.6,54.8,29.80,South,191,7.0,17.0,50,0.00,,---,0.00,VWS V14.01,2013-04-19 01:35:00,
2013-04-18 21:40:00,74.5,54.7,29.80,SSE,159,13.0,17.0,50,0.00,,---,0.00,VWS V14.01,2013-04-19 01:40:00,
2013-04-18 21:45:00,74.6,54.2,29.80,South,182,10.0,19.0,49,0.00,,---,0.00,VWS V14.01,2013-04-19 01:45:00,
2013-04-18 21:50:00,74.4,54.6,29.79,South,180,15.0,15.0,50,0.00,,---,0.00,VWS V14.01,2013-04-19 01:50:00,
2013-04-18 21:55:00,74.4,54.6,29.79,SSW,200,11.0,20.0,50,0.00,,---,0.00,VWS V14.01,2013-04-19 01:55:00,
2013-04-18 22:00:00,74.2,54.4,29.79,SSW,196,13.0,14.0,50,0.00,,---,0.00,VWS V14.01,2013-04-19 02:00:00,
2013-04-18 22:05:00,74.0,54.2,29.79,SSE,160,12.0,14.0,50,0.00,,---,0.00,VWS V14.01,2013-04-19 02:05:00,
2013-04-18 22:10:00,73.9,54.7,29.79,South,179,12.0,13.0,51,0.00,,---,0.00,VWS V14.01,2013-04-19 02:10:00,
2013-04-18 22:15:00,73.8,54.6,29.79,South,181,14.0,18.0,51,0.00,,---,0.00,VWS V14.01,2013-04-19 02:15:00,
2013-04-18 22:20:00,73.7,54.5,29.79,South,187,10.0,15.0,51,0.00,,---,0.00,VWS V14.01,2013-04-19 02:20:00,
2013-04-18 22:25:00,73.5,54.3,29.79,SSW,203,13.0,16.0,51,0.00,,---,0.00,VWS V14.01,2013-04-19 02:25:00,
2013-04-18 22:30:00,73.5,54.8,29.79,SSE,166,11.0,18.0,52,0.00,,---,0.00,VWS V14.01,2013-04-19 02:30:00,
2013-04-18 22:35:00,73.3,54.6,29.78,South,174,10.0,20.0,52,0.00,,---,0.00,VWS V14.01,2013-04-19 02:35:00,
2013-04-18 22:40:00,73.3,54.6,29.78,SSE,164,18.0,19.0,52,0.00,,---,0.00,VWS V14.01,2013-04-19 02:40:00,
2013-04-18 22:45:00,73.3,54.6,29.78,SSW,195,8.0,21.0,52,0.00,,---,0.00,VWS V14.01,2013-04-19 02:45:00,
2013-04-18 22:50:00,72.9,54.3,29.77,South,175,12.0,16.0,52,0.00,,---,0.00,VWS V14.01,2013-04-19 02:50:00,
2013-04-18 22:55:00,72.9,54.3,29.77,South,180,10.0,17.0,52,0.00,,---,0.00,VWS V14.01,2013-04-19 02:55:00,
2013-04-18 23:00:00,72.8,54.2,29.77,SSE,150,9.0,10.0,52,0.00,,---,0.00,VWS V14.01,2013-04-19 03:00:00,
2013-04-18 23:05:00,72.7,54.1,29.77,SSW,209,9.0,18.0,52,0.00,,---,0.00,VWS V14.01,2013-04-19 03:05:00,
2013-04-18 23:10:00,72.7,54.1,29.77,South,188,8.0,18.0,52,0.00,,---,0.00,VWS V14.01,2013-04-19 03:10:00,
2013-04-18 23:15:00,72.5,54.4,29.77,SW,215,3.0,18.0,53,0.00,,---,0.00,VWS V14.01,2013-04-19 03:15:00,
2013-04-18 23:20:00,72.3,54.2,29.77,SSE,156,8.0,10.0,53,0.00,,---,0.00,VWS V14.01,2013-04-19 03:20:00,
2013-04-18 23:25:00,72.1,54.0,29.77,South,186,8.0,12.0,53,0.00,,---,0.00,VWS V14.01,2013-04-19 03:25:00,
2013-04-18 23:30:00,72.0,54.0,29.77,SSW,195,6.0,8.0,53,0.00,,---,0.00,VWS V14.01,2013-04-19 03:30:00,
2013-04-18 23:35:00,71.8,53.8,29.77,SSW,202,4.0,11.0,53,0.00,,---,0.00,VWS V14.01,2013-04-19 03:35:00,
2013-04-18 23:40:00,71.7,53.7,29.76,South,188,11.0,11.0,53,0.00,,---,0.00,VWS V14.01,2013-04-19 03:40:00,
2013-04-18 23:45:00,71.7,53.7,29.76,South,184,5.0,15.0,53,0.00,,---,0.00,VWS V14.01,2013-04-19 03:45:00,
2013-04-18 23:50:00,71.8,53.2,29.76,South,190,9.0,12.0,52,0.00,,---,0.00,VWS V14.01,2013-04-19 03:50:00,